| time (UTC) | temp C | wind direction | speed KPH | gust KPH | rain 1hr cm | rain 24hr cm | rain mn cm | humidity % | barometer mb |
| 20260505063045 | 21 | 183 | 0.0 | 9.7 | 0.00 | 0.00 | 0.00 | 38 | 1007.8 |
| 20260505061547 | 21 | 195 | 1.6 | 6.4 | 0.00 | 0.00 | 0.00 | 38 | 1007.8 |
| 20260505060048 | 22 | 162 | 0.0 | 6.4 | 0.00 | 0.00 | 0.00 | 37 | 1007.7 |
| 20260505054552 | 22 | 122 | 0.0 | 9.7 | 0.00 | 0.00 | 0.00 | 35 | 1007.6 |
| 20260505053043 | 23 | 110 | 1.6 | 20.9 | 0.00 | 0.00 | 0.00 | 34 | 1007.5 |
| 20260505051542 | 23 | 89 | 9.7 | 25.7 | 0.00 | 0.00 | 0.00 | 33 | 1007.3 |
| 20260505041540 | 24 | 131 | 4.8 | 20.9 | 0.00 | 0.00 | 0.00 | 31 | 1006.7 |
| 20260505040040 | 24 | 98 | 4.8 | 16.1 | 0.00 | 0.00 | 0.00 | 30 | 1006.5 |
| 20260505034539 | 25 | 127 | 6.4 | 24.1 | 0.00 | 0.00 | 0.00 | 30 | 1006.3 |
| 20260505033041 | 25 | 134 | 6.4 | 22.5 | 0.00 | 0.00 | 0.00 | 29 | 1006.1 |
| 20260505031551 | 25 | 163 | 4.8 | 17.7 | 0.00 | 0.00 | 0.00 | 28 | 1005.9 |
| 20260505030037 | 26 | 116 | 8.0 | 17.7 | 0.00 | 0.00 | 0.00 | 26 | 1005.7 |
| 20260505024546 | 27 | 115 | 9.7 | 27.4 | 0.00 | 0.00 | 0.00 | 25 | 1005.6 |
| 20260505023041 | 27 | 118 | 8.0 | 19.3 | 0.00 | 0.00 | 0.00 | 24 | 1005.5 |
| 20260505021536 | 28 | 121 | 8.0 | 24.1 | 0.00 | 0.00 | 0.00 | 24 | 1005.5 |
| 20260505020034 | 28 | 150 | 6.4 | 22.5 | 0.00 | 0.00 | 0.00 | 22 | 1005.4 |
| 20260505014551 | 28 | 188 | 8.0 | 20.9 | 0.00 | 0.00 | 0.00 | 21 | 1005.4 |
| 20260505013033 | 29 | 128 | 6.4 | 24.1 | 0.00 | 0.00 | 0.00 | 21 | 1005.4 |
| 20260505011536 | 32 | 96 | 4.8 | 11.3 | 0.00 | 0.00 | 0.00 | 19 | 1005.3 |
| 20260505010030 | 32 | 69 | 1.6 | 6.4 | 0.00 | 0.00 | 0.00 | 19 | 1005.4 |
| 20260505004528 | 31 | 46 | 1.6 | 8.0 | 0.00 | 0.00 | 0.00 | 21 | 1005.5 |
| 20260505003027 | 31 | 346 | 0.0 | 6.4 | 0.00 | 0.00 | 0.00 | 21 | 1005.5 |
| 20260505001526 | 31 | 32 | 4.8 | 8.0 | 0.00 | 0.00 | 0.00 | 19 | 1005.5 |
| 20260505000025 | 31 | 108 | 1.6 | 8.0 | 0.00 | 0.00 | 0.00 | 20 | 1005.6 |
| 20260504234524 | 31 | 311 | 1.6 | 8.0 | 0.00 | 0.00 | 0.00 | 19 | 1005.5 |
| 20260504233027 | 31 | 120 | 4.8 | 11.3 | 0.00 | 0.00 | 0.00 | 19 | 1005.7 |
| 20260504231521 | 30 | 263 | 0.0 | 6.4 | 0.00 | 0.00 | 0.00 | 19 | 1005.7 |
| 20260504230021 | 31 | 101 | 3.2 | 6.4 | 0.00 | 0.00 | 0.00 | 19 | 1005.9 |
| 20260504224520 | 31 | 75 | 4.8 | 11.3 | 0.00 | 0.00 | 0.00 | 19 | 1006.1 |
| 20260504223015 | 30 | 219 | 0.0 | 3.2 | 0.00 | 0.00 | 0.00 | 20 | 1006.2 |
| 20260504221512 | 30 | 104 | 3.2 | 6.4 | 0.00 | 0.00 | 0.00 | 20 | 1006.4 |
| 20260504220011 | 30 | 276 | 0.0 | 8.0 | 0.00 | 0.00 | 0.00 | 19 | 1006.7 |
| 20260504214508 | 30 | 58 | 6.4 | 12.9 | 0.00 | 0.00 | 0.00 | 19 | 1006.9 |
| 20260504213011 | 30 | 89 | 3.2 | 11.3 | 0.00 | 0.00 | 0.00 | 20 | 1007.0 |
| 20260504211513 | 29 | 79 | 1.6 | 8.0 | 0.00 | 0.00 | 0.00 | 21 | 1007.2 |
| 20260504210003 | 30 | 71 | 1.6 | 9.7 | 0.00 | 0.00 | 0.00 | 19 | 1007.4 |
| 20260504204501 | 30 | 352 | 3.2 | 9.7 | 0.00 | 0.00 | 0.00 | 21 | 1007.6 |
| 20260504203134 | 29 | 112 | 3.2 | 16.1 | 0.00 | 0.00 | 0.00 | 21 | 1007.7 |
| 20260504201557 | 29 | 107 | 1.6 | 9.7 | 0.00 | 0.00 | 0.00 | 20 | 1007.8 |
| 20260504200055 | 28 | 44 | 0.0 | 6.4 | 0.00 | 0.00 | 0.00 | 21 | 1008.1 |
| 20260504194554 | 29 | 188 | 1.6 | 8.0 | 0.00 | 0.00 | 0.00 | 20 | 1008.1 |
| 20260504193052 | 28 | 108 | 0.0 | 6.4 | 0.00 | 0.00 | 0.00 | 22 | 1008.3 |
| 20260504191553 | 28 | 259 | 1.6 | 4.8 | 0.00 | 0.00 | 0.00 | 24 | 1008.5 |
| 20260504190052 | 28 | 198 | 0.0 | 4.8 | 0.00 | 0.00 | 0.00 | 22 | 1008.7 |
| 20260504184545 | 28 | 273 | 3.2 | 6.4 | 0.00 | 0.00 | 0.00 | 22 | 1008.8 |
| 20260504183041 | 27 | 350 | 4.8 | 9.7 | 0.00 | 0.00 | 0.00 | 23 | 1008.9 |
| 20260504181538 | 27 | 29 | 0.0 | 6.4 | 0.00 | 0.00 | 0.00 | 24 | 1009.0 |
| 20260504180034 | 26 | 211 | 1.6 | 4.8 | 0.00 | 0.00 | 0.00 | 26 | 1009.0 |
| 20260504174533 | 25 | 112 | 1.6 | 6.4 | 0.00 | 0.00 | 0.00 | 30 | 1009.0 |
| 20260504173027 | 24 | 95 | 3.2 | 8.0 | 0.00 | 0.00 | 0.00 | 30 | 1009.1 |
| 20260504171525 | 23 | 109 | 4.8 | 9.7 | 0.00 | 0.00 | 0.00 | 28 | 1009.3 |
| 20260504081507 | 14 | 131 | 0.0 | 0.0 | 0.00 | 0.00 | 0.00 | 64 | 1009.0 |